K3GM Weather Reports


Display with metric or nautical units.
time (UTC)temp
F
wind
direction
speed
MPH
gust
MPH
rain 1hr
in
rain 24hr
in
rain mn
in
humidity
%
barometer
mb
20210731173032 76 0 0.0 6.0 0.00 0.00 0.00 47 1016.2
20210731171529 75 0 0.0 2.0 0.00 0.00 0.00 47 1016.3
20210731170029 76 360 1.0 5.0 0.00 0.00 0.00 41 1016.6
20210731164553 74 0 0.0 5.0 0.00 0.00 0.00 41 1016.8
20210731163036 74 15 0.0 6.0 0.00 0.00 0.00 44 1017.0
20210731161600 73 0 0.0 7.0 0.00 0.00 0.00 43 1017.2
20210731160019 73 125 0.0 3.0 0.00 0.00 0.00 44 1017.3
20210731154527 73 0 0.0 4.0 0.00 0.00 0.00 43 1017.3
20210731153048 73 5 1.0 3.0 0.00 0.00 0.00 45 1017.4
20210731151524 72 0 0.0 4.0 0.00 0.00 0.00 47 1017.4
20210731150118 72 0 0.0 3.0 0.00 0.00 0.00 47 1017.5
20210731144628 71 0 0.0 4.0 0.00 0.00 0.00 50 1017.5
20210731143106 69 0 0.0 3.0 0.00 0.00 0.00 55 1017.7
20210731141521 68 0 0.0 0.0 0.00 0.00 0.00 57 1017.9
20210731140025 68 0 0.0 0.0 0.00 0.00 0.00 66 1017.8
20210731134523 67 0 0.0 1.0 0.00 0.00 0.00 63 1017.7
20210731133020 66 0 0.0 1.0 0.00 0.00 0.00 58 1017.5
20210731131521 65 0 0.0 0.0 0.00 0.00 0.00 67 1017.6
20210731130057 66 0 0.0 0.0 0.00 0.00 0.00 66 1017.8
20210731124519 66 0 0.0 3.0 0.00 0.00 0.00 66 1017.6
20210731123058 65 352 0.0 1.0 0.00 0.00 0.00 66 1017.7
20210731121528 64 0 0.0 0.0 0.00 0.00 0.00 74 1017.9
20210731120028 64 0 0.0 0.0 0.00 0.00 0.00 74 1018.0
20210731114524 64 0 0.0 2.0 0.00 0.00 0.00 71 1017.9
20210731113026 63 0 0.0 1.0 0.00 0.00 0.00 71 1017.8
20210731111533 63 0 0.0 2.0 0.00 0.00 0.00 72 1017.6
20210731110034 62 0 0.0 3.0 0.00 0.00 0.00 74 1017.9
20210731104546 62 0 0.0 3.0 0.00 0.00 0.00 75 1017.6
20210731103025 61 0 0.0 0.0 0.00 0.00 0.00 77 1017.6
20210731101554 60 0 0.0 0.0 0.00 0.00 0.00 78 1017.2
20210731100106 60 0 0.0 2.0 0.00 0.00 0.00 77 1017.0
20210731094524 60 0 0.0 0.0 0.00 0.00 0.00 78 1017.1
20210731093037 59 0 0.0 0.0 0.00 0.00 0.00 81 1017.1
20210731091527 59 0 0.0 0.0 0.00 0.00 0.00 80 1016.7
20210731090032 59 0 0.0 0.0 0.00 0.00 0.00 78 1016.7
20210731084602 59 0 0.0 0.0 0.00 0.00 0.00 77 1016.6
20210731083027 60 0 0.0 0.0 0.00 0.00 0.00 70 1016.6
20210731081523 61 0 0.0 0.0 0.00 0.00 0.00 75 1016.5
20210731080034 61 0 0.0 0.0 0.00 0.00 0.00 73 1016.4
20210731074531 62 0 0.0 0.0 0.00 0.00 0.00 71 1016.4
20210731073110 63 0 0.0 0.0 0.00 0.00 0.00 70 1016.4
20210731071601 63 0 0.0 2.0 0.00 0.00 0.00 68 1016.2
20210731070022 64 0 0.0 3.0 0.00 0.00 0.00 68 1016.3
20210731064524 64 0 0.0 0.0 0.00 0.00 0.00 67 1016.2
20210731063023 65 0 0.0 2.0 0.00 0.00 0.00 66 1016.3
20210731061554 65 0 0.0 3.0 0.00 0.00 0.00 64 1016.2
20210731060047 66 0 0.0 3.0 0.00 0.00 0.00 63 1016.2
20210731054536 66 352 0.0 8.0 0.00 0.00 0.00 62 1016.3
20210731053026 67 347 2.0 8.0 0.00 0.00 0.00 61 1016.0
20210731051545 67 344 2.0 5.0 0.00 0.00 0.00 61 1016.0
20210731050036 67 351 0.0 5.0 0.00 0.00 0.00 61 1015.8
20210731044537 68 0 0.0 2.0 0.00 0.00 0.00 62 1016.0
20210731043117 68 0 0.0 0.0 0.00 0.00 0.00 62 1016.0
20210731041529 69 0 0.0 2.0 0.00 0.00 0.00 60 1015.7
20210731040026 70 0 0.0 2.0 0.00 0.00 0.00 60 1015.7
20210731034531 70 0 0.0 1.0 0.00 0.00 0.00 60 1015.5
20210731033026 71 0 0.0 2.0 0.00 0.00 0.00 61 1015.4
20210731031549 71 0 0.0 2.0 0.00 0.00 0.00 60 1015.1
20210731030032 72 0 0.0 4.0 0.00 0.00 0.00 58 1015.0
20210731024529 72 331 1.0 8.0 0.00 0.00 0.00 51 1014.9
20210731023127 73 0 0.0 3.0 0.00 0.00 0.00 59 1014.9
20210731021549 73 0 0.0 2.0 0.00 0.00 0.00 59 1014.6
20210731020051 74 0 0.0 3.0 0.00 0.00 0.00 58 1014.5
20210731014540 74 316 0.0 2.0 0.00 0.00 0.00 57 1014.2
20210731013040 75 0 0.0 1.0 0.00 0.00 0.00 57 1014.2
20210731011554 75 0 0.0 1.0 0.00 0.00 0.00 57 1013.8
20210731010032 75 0 0.0 3.0 0.00 0.00 0.00 56 1013.4
20210731004543 76 0 0.0 0.0 0.00 0.00 0.00 50 1013.3
20210731003100 77 0 0.0 3.0 0.00 0.00 0.00 54 1013.1
20210731001600 78 348 0.0 4.0 0.00 0.00 0.00 51 1013.2
20210731000026 79 348 1.0 5.0 0.00 0.00 0.00 43 1013.2
20210730234603 79 360 2.0 7.0 0.00 0.00 0.00 43 1012.9
20210730233037 79 5 1.0 6.0 0.00 0.00 0.00 51 1012.8
20210730231604 80 9 2.0 9.0 0.00 0.00 0.00 43 1012.7
20210730230037 80 5 1.0 9.0 0.00 0.00 0.00 44 1012.3
20210730224607 81 352 3.0 9.0 0.00 0.00 0.00 50 1012.0
20210730223035 81 360 2.0 7.0 0.00 0.00 0.00 49 1011.9
20210730221545 82 346 1.0 12.0 0.00 0.00 0.00 42 1011.9
20210730220055 82 0 1.0 6.0 0.00 0.00 0.00 48 1011.6
20210730214616 83 326 2.0 10.0 0.00 0.00 0.00 47 1011.4
20210730213036 83 21 3.0 15.0 0.00 0.00 0.00 36 1011.2
20210730211541 83 346 2.0 10.0 0.00 0.00 0.00 37 1011.1
20210730210040 83 335 3.0 11.0 0.00 0.00 0.00 40 1011.0
20210730204530 84 75 0.0 9.0 0.00 0.00 0.00 38 1010.8
20210730203108 84 344 0.0 10.0 0.00 0.00 0.00 37 1010.6
20210730201524 84 286 1.0 8.0 0.00 0.00 0.00 46 1010.6
20210730200205 83 351 2.0 11.0 0.00 0.00 0.00 39 1010.7
20210730194528 84 340 5.0 13.0 0.00 0.00 0.00 37 1010.6
20210730193041 84 0 3.0 10.0 0.00 0.00 0.00 38 1010.6
20210730191549 85 0 1.0 10.0 0.00 0.00 0.00 42 1010.5
20210730190028 84 360 2.0 9.0 0.00 0.00 0.00 42 1010.7
20210730184520 83 0 2.0 12.0 0.00 0.00 0.00 46 1010.8
20210730183036 85 352 3.0 11.0 0.00 0.00 0.00 43 1010.6
20210730181558 85 360 1.0 10.0 0.00 0.00 0.00 43 1010.7
20210730180058 84 337 2.0 13.0 0.00 0.00 0.00 42 1010.6
20210730174522 84 334 3.0 17.0 0.00 0.00 0.00 43 1010.6